Regional Weather Roundup
Issued by NWS

Home | Current Version | Previous Version | Text Only | Print | Product List | Glossary On
Versions: 1 2 3 4 5 6 7 8 9 10 11 12 13 14 15 16 17 18 19 20 21 22 23 24 25 26 27 28 29 30 31 32 33 34 35 36 37 38 39 40 41 42 43 44 45 46 47 48 49 50
000
ASHW40 PHFO 270143
RWRHI

WEATHER ROUNDUP FOR HAWAII
NATIONAL WEATHER SERVICE HONOLULU HI
300 PM HST THU APR 26 2018

THIS IS AN AUTOMATED REPORT THAT HAS NOT BEEN QUALITY CONTROLLED.

NOTE..."FAIR" INDICATES FEW OR NO CLOUDS BELOW 12,000 FEET WITH NO
SIGNIFICANT WEATHER AND/OR OBSTRUCTIONS TO VISIBILITY.

* - THESE SITES REPORT LIMITED FIELDS
# - BUOY DATA PROVIDED BY PACIFIC ISLANDS OCEAN OBSERVING SYSTEM.

HIZ001>004-270200-
KAUAI-NIIHAU-

CITY           SKY/WX    TMP DP  RH WIND       PRES   REMARKS
LIHUE APT      HVY RAIN  74  70  87 N15       30.03F FOG
PORT ALLEN*      N/A     81 N/A N/A E21G28      N/A
POIPU*           N/A     77 N/A N/A NE9G17      N/A
PRINCEVILLE*     N/A     73 N/A N/A E12G20      N/A
KOKOLE POINT*  NOT AVBL
MOLOAA DAIRY*    N/A     70  68  94 E8G18       N/A
WAIMEA HTS*      N/A     82  66  57 SW8         N/A
PUU OPAE*        N/A     72  61  68 W6G12       N/A
PUU LUA*       NOT AVBL
MAKAHA RIDGE*    N/A     75  63  64 SW3G10      N/A
$$

HIZ005>011-270200-
OAHU-

CITY           SKY/WX    TMP DP  RH WIND       PRES   REMARKS
HONOLULU       PTSUNNY   81  67  62 E15       29.99F
KALAELOA       CLOUDY    80  70  71 SE10G17   30.00F
KANEOHE MCB    LGT RAIN  74  70  87 E15G25    29.98F FOG
WHEELER FIELD  PTSUNNY   76  67  75 E15       30.00F
BELLOWS*         N/A    N/A N/A N/A NE24        N/A
KAHUKU*          N/A    N/A N/A N/A NE8G16      N/A
WHEELER*         N/A    N/A N/A N/A E9G16       N/A
WAIANAE HARBOR   N/A    N/A N/A N/A E3          N/A
DILLINGHAM*    NOT AVBL
KAHUKU TRN*      N/A     70  68  94 W12G24      N/A
KAWAILOA*        N/A     70  66  88 E12G23      N/A
KII*             N/A     73  68  83 NE18G29     N/A
MAKUA RANGE*   NOT AVBL
OAHU FOREST NW   N/A     68  64  88 E18G31      N/A
SCHOFIELD BRK* NOT AVBL
SCHOFIELD S*   NOT AVBL
WAIANAE VLY*   NOT AVBL
KUAOKALA*        N/A     66  66 100 NE16G26     N/A
HONOULIUULI*   NOT AVBL
MOKUOLOE IS*   NOT AVBL
PALEHUA*         N/A     66  66 100 NE7         N/A
WAIAWA PHB*    NOT AVBL
$$

HIZ012>013-270200-
MOLOKAI-

CITY           SKY/WX    TMP DP  RH WIND       PRES   REMARKS
MOLOKAI AIRPT  MOSUNNY   78  69  73 NE13G20   30.00F
KALAUPAPA      NOT AVBL
MAKAPULAPAI*     N/A     73  70  88 E16G24      N/A
MOLOKAI 1*     NOT AVBL
PUU ALII*        N/A     62  62  99 NE2G9       N/A
$$

HIZ016-270200-
KAHOOLAWE-

CITY           SKY/WX    TMP DP  RH WIND       PRES   REMARKS
KAHOOLAWE*     NOT AVBL
HAKIOAWA*        N/A     76  70  81 MISG      30.39
HONOKANAIA*    NOT AVBL
KANELOA*         N/A     75  68  78 E21G33    30.06F
KEALIALALO*    NOT AVBL
LUA MAKIKA*    NOT AVBL
$$

HIZ014>015-270200-
LANAI-

CITY           SKY/WX    TMP DP  RH WIND       PRES   REMARKS
LANAI CITY     CLOUDY    73  68  83 SE12      30.03F
LANAI 1*       NOT AVBL
$$

HIZ017>028-270200-
MAUI-

CITY           SKY/WX    TMP DP  RH WIND       PRES   REMARKS
KAHULUI        PTSUNNY   81  70  69 NE21G28   29.96F
KAPALUA-W MAUI PTSUNNY   77  72  83 NE14G23   29.99F
HANA AIRPORT   NOT AVBL
HANA*            N/A     72 N/A N/A E7G15       N/A
HALEAKALA SUMM   N/A     45  43  93 SE14        N/A
MAALAEA BAY*     N/A     86 N/A N/A N10G16      N/A
HALEAKALA*     NOT AVBL
KAUPO GAP*     NOT AVBL
KULA 1*          N/A     60  54  80 W6G12       N/A
$$

HIZ023>026-270200-
BIG ISLAND OF HAWAII COAST AND LOWER SLOPES-

CITY           SKY/WX    TMP DP  RH WIND       PRES   REMARKS
KAILUA KONA    CLOUDY    83  67  58 W10       29.96F
HILO           HVY RAIN  73  70  88 E7        30.00F FOG
HONOKAA*         N/A     72 N/A N/A VRB1        N/A
KAWAIHAE MWT*    N/A     81 N/A N/A W7          N/A
KAWAIHAE*        N/A     79 N/A N/A W3        29.96S
SOUTH POINT*     N/A     68 N/A N/A N14G21      N/A
UPOLU AIRPORT* NOT AVBL
KAMUELA*       MOCLDY    73  63  68 SW10      30.07S
HAKALAU*         N/A     57  57 100 S3G14       N/A
KALOKO-HONOKO*   N/A     82  70  65 W9        29.96F
PALI 2*          N/A     64  64 100 E12G18      N/A
KEALAKOMO*       N/A     75  70  83 N3G12       N/A
KAUPULEHU*       N/A     77  64  65 W12G20      N/A
KAPAPALA*        N/A     67  65  95 NE3G14      N/A
LOWER KAHUKU*    N/A     64  64 100 E3G9        N/A
PUHE CS*         N/A     82  70  65 W3G9        N/A
PUHO CS*         N/A     79  69  72 W3G9        N/A
PTA KEAMUKU*     N/A     64  63  94 W9          N/A
WAIKOLOA*        N/A     77  63  61 W9G18       N/A
$$

HIZ027>028-270200-
BIG ISLAND OF HAWAII INTERIOR AND SUMMMITS-

CITY           SKY/WX    TMP DP  RH WIND       PRES   REMARKS
BRADSHAW FIELD CLOUDY    61  54  77 W9        30.28F
MK VISITOR CEN   N/A     46  45  93 S5          N/A
MAUNA KEA*       N/A     39  34  81 CALM        N/A
MAUNA LOA*       N/A     46  37  71 MISG        N/A
MAUNA LOA 1*   NOT AVBL
PTA KIPUKA*      N/A     63  59  88 S3G9        N/A
PTA RANGE 17*    N/A     63  59  88 SE7G15      N/A
PTA WEST*        N/A    N/A N/A N/A NW10G16     N/A
NENE CABIN*      N/A     54  54 100 E7G15       N/A
AHUMOA*          N/A     55  55  99 W6G12       N/A
PTA PORTABLE*  NOT AVBL
PUU MALI*        N/A     54  54 100 W3G12       N/A
$$

HIC003-270200-
NORTHWEST ISLANDS-

CITY           SKY/WX    TMP DP  RH WIND       PRES   REMARKS
MIDWAY ISLAND  CLOUDY    72  57  60 NE21G26   30.35F
MIDWAY NOS*      N/A     68 N/A N/A MISG      30.33S
FRENCH FRIGATE NOT AVBL
$$

PHZ110>124-180-270200-
BUOY REPORTS

STATION/POSITION TIME  TEMP    WIND        PRES    WAVE   SWELL
                       AIR SEA DIR/SP/G            HT/PER HT/DIR
                 (UTC) (F)     (DEG/KT/KT) (MB)    (FT/S) (FT/D)
BUOY 51001       0110   81 81   70/ 19/ 25 1011.7
BUOY 51101       0050   73 74  100/ 14/ 16 1018.3F   8/15   7
BUOY 51100       NOT AVBL
BUOY 51002       0110   77 78   60/ 12/ 16 1013.6
BUOY 51003       0050   76 79   70/ 10/ 12 1014.6F   7/ 8   7/ 80
BUOY 51004       0110   77 78   80/ 19/ 23   N/A
WAIMEA BAY#      NOT AVBL
MOKAPU POINT#    0104      76                N/A     8/ 9   2/ 80
LANAI#           NOT AVBL
BARBERS PT 2#    NOT AVBL
PAUWELA#         0100      75                N/A     8/ 8   2/330
HILO#            0057      76                N/A     9/ 8   2/110
KANEOHE BAY#     NOT AVBL
KANEOHE BAY 2#   NOT AVBL
HANALEI#         0052      77                N/A     7/ 8   2/340
KAHULUI HARBOR   0118   75 77   50/ 17/ 24 1014.5
HONOLULU HARBOR  0118   77 77   70/  3/  7 1014.8
PEARL HARBOR#    0100      77                N/A     3/14   2/170
KILO NALU        NOT AVBL
HILO HARBOR      0118   74 77   60/  4/  8 1015.5
MOKUOLOE         0036   73 77   60/ 17/ 21 1016.1F
NAWILIWILI       0118   74      10/  8/ 10 1016.4
WHOTS BUOY       NOT AVBL
BUOY 51028       NOT AVBL
$$

......................KEY........................................
  SKY/WX - SKY CONDITIONS/PRESENT WEATHER
  TMP    - TEMPERATURE IN FAHRENHEIT
  DWPT   - DEWPOINT IN FAHRENHEIT
  RH     - RELATIVE HUMIDITY IN PERCENT
  WIND   - DIRECTION AND SPEED /MPH FOR ISLANDS...KTS FOR BUOYS/
  PRES   - MEAN SEA LEVEL PRESSURE IN INCHES OF HG
  VSB    - VISIBILITY IN MILES
  HX     - HEAT INDEX
  WCI    - WIND CHILL INDEX
  VRB    - VARIABLE WIND DIRECTION
  N/A    - NOT AVAILABLE



USA.gov is the U.S. government's official web portal to all federal, state and local government web resources and services.